User: anonymous   Login
Location: Unspecified
(0.0000°N, 0.0000°E)
Time: 03:34:29
(UTC+00:00)
Language:

DMSP 5D-3 F19 (USA 249) - Orbit

View from above orbital plane
View from above orbital plane
View from above satellite
View from above satellite

Ground track
Ground track

The orbit data is extracted from the following two-line orbital elements,

1 39630U 14015A   17346.72659355 0.00000000  00000-0  00000-0 0    08
2 39630  98.7996   0.0283 0010000  68.3931 291.6068 14.13867819    05
Epoch (UTC): 12 December 2017 17:26:17
Eccentricity: 0.0010000
inclination: 98.7996°
perigee height: 839 km
apogee height: 853 km
right ascension of ascending node: 0.0283°
argument of perigee: 68.3931°
revolutions per day: 14.13867819
mean anomaly at epoch: 291.6068°
orbit number at epoch: 0

The dashed part of the orbit path shows where the satellite is in the earth's shadow,  

DLR